Location: Czekanka
(50.4925°N, 19.2643°E)
Time: 02:16:06
(UTC+00:00)

ADEOS II - Pass Details

Date: 25 September 2024
Orbit: 795 x 798 km, 98.7° (Epoch: 14 October)

Event Time Altitude Azimuth Distance (km) Brightness Sun altitude
Rises 23:51:33 0° 27° (NNE) 3,310 6.2 -38.2°
Reaches altitude 10° 23:54:41 10° 47° (NE) 2,375 5.2 -38.0°
Enters shadow 23:57:07 17° 74° (ENE) 1,935 4.4 -37.8°
